THOR ABLESTAR DEB, 224

Orbit data source: Space-Track

THOR ABLESTAR DEB, 224 is space debris in LEO originally from a launch on Thu, 29 Jun 1961 UTC launched from the Air Force Eastern Test Range (AFETR). Debris objects in space refer to the collection of defunct objects orbiting the Earth. Examples of debris include non-operational satellites, rocket bodies, and fragments generated from explosions, collisions, or faulty payload assembly.

Loading next visibility...
Identifier
224, 1961-015BL
Orbit
LEO
Country
Flag of USUS
Related business
Manufacturer
Unknown
Mission
Spacecraft
Bus & Motor
Unknown
Mass
Unknown
Launch date (UTC)
1961-06-29 (65 years ago)
Launch vehicle
Unknown
Launch site
Air Force Eastern Test Range (AFETR)
Object type
Payload
Rocket body
Debris
Shape & HBR
Unknown shape, 0.2 m
Radar Cross Section
Medium (>0.1 m² and <1 m²)

Expand to show TLE details & history
Last TLE update: 13 hours ago

TLE from 13 hours ago
0 THOR ABLESTAR DEB
1   224U 61015BL  26131.05489823  .00000175  00000-0  13790-3 0  9999
2   224  66.7371 246.8867 0057469  51.1476 127.2744 14.12048626307276
Epoch: 2026-05-11T01:19Z
TLE epoch observation values (Epoch: 2026-05-11T01:19:03.207Z)
Latitude
0.87567°
Longitude
177.89971°
Altitude
879.672 km
Speed
7.4 km/s
True Right ascension
04h 26m 02s
True Declination
0° 52' 14"
Sunlit
Object was in daylight at epoch
Visualization orbit readout
Latitude
Unknown
Longitude
Unknown
Altitude
Unknown
Speed
Unknown
Apparent Right ascension
Unknown
Apparent Declination
Unknown
Sunlit
N/A
Visualization observer readout
Local Sidereal Time
22:40:18
Azimuth
Unknown
Elevation
Unknown
Doppler factor
Unknown
Orbital elements
Apogee altitude
892.298 km
Perigee altitude
809.21 km
Semi-major axis
7,228.891 km
Eccentricity
0.00575
Inclination
66.7371°
RAAN
246.8867°
Arg. of periapsis
51.1476°
True anomaly
127.79616°
Mean anomaly
127.2744°
Eccentric anomaly
127.53551°
Mean motion
3.53131 °/min
Orbital period
101.95 mins
BSTAR
0.0001379
Loading maneuver chart data...
Computing Atmospheric mass density...

Documentation

Showing up to 5 results
|